This demonstration page uses our WeatherBlox Daily Observations layout. Learn more.

38.89511, -77.03637

Hourly Observations for December 11, 2018

Temp ( °F °C ) Dew Point ( °F °C ) Humidity (%) Winds ( mph kmh ) Pressure ( in mb ) Visibility ( mi km ) Precip ( " mm )
12:52 am 00:52 Mostly Clear 31 -0.6 22 -5.6 69 69 NNW 6 9 30.18 1022 10 16.09344 0 0
1:52 am 01:52 Mostly Clear 30 -1.1 21 -6.1 69 69 NNW 6 9 30.18 1022 10 16.09344 0 0
2:52 am 02:52 Mostly Clear 29 -1.7 21 -6.1 72 72 NNW 5 7 30.18 1022 10 16.09344 0 0
3:52 am 03:52 Clear 28 -2.2 21 -6.1 75 75 NNW 7 11 30.18 1022 10 16.09344 0 0
4:52 am 04:52 Mostly Clear 28 -2.2 21 -6.1 75 75 NNW 6 9 30.18 1022 10 16.09344 0 0
5:52 am 05:52 Mostly Clear 28 -2.2 21 -6.1 75 75 NNW 8 13 30.18 1022 10 16.09344 0 0
6:52 am 06:52 Mostly Clear 28 -2.2 21 -6.1 75 75 NNW 7 11 30.18 1022 10 16.09344 0 0
7:52 am 07:52 Mostly Sunny 29 -1.7 21 -6.1 72 72 NNW 6 9 30.18 1022 10 16.09344 0 0
8:52 am 08:52 Mostly Sunny 33 0.6 24 -4.4 70 70 N 6 9 30.18 1022 10 16.09344 0 0
9:52 am 09:52 Sunny 36 2.2 24 -4.4 62 62 NNE 6 9 30.18 1022 10 16.09344 0 0
10:52 am 10:52 Sunny 39 3.9 25 -3.9 57 57 NE 5 7 30.15 1021 10 16.09344 0 0
11:52 am 11:52 Sunny 40 4.4 23 -5 51 51 ENE 3 6 30.12 1020 10 16.09344 0 0
12:52 pm 12:52 Sunny 42 5.6 22 -5.6 45 45 Calm 30.09 1019 10 16.09344 0 0
1:52 pm 13:52 Sunny 44 6.7 21 -6.1 40 40 SE 3 6 30.03 1017 10 16.09344 0 0
2:52 pm 14:52 Sunny 46 7.8 17 -8.3 31 31 SW 5 7 30.03 1017 10 16.09344 0 0
3:52 pm 15:52 Sunny 45 7.2 19 -7.2 35 35 SW 9 15 30.03 1017 10 16.09344 0 0
4:52 pm 16:52 Clear 42 5.6 23 -5 47 47 SSW 9 15 30.03 1017 10 16.09344 0 0
5:52 pm 17:52 Clear 40 4.4 23 -5 51 51 SSW 7 11 30.03 1017 10 16.09344 0 0
6:52 pm 18:52 Clear 39 3.9 23 -5 53 53 SW 8 13 30.03 1017 10 16.09344 0 0
7:52 pm 19:52 Clear 38 3.3 23 -5 55 55 SSW 7 11 30.03 1017 10 16.09344 0 0
8:52 pm 20:52 Clear 38 3.3 23 -5 55 55 Calm 30.03 1017 10 16.09344 0 0
9:52 pm 21:52 Clear 35 1.7 23 -5 61 61 WSW 7 11 30.03 1017 10 16.09344 0 0
10:52 pm 22:52 Clear 41 5 17 -8.3 38 38 WNW 9 15 30.06 1018 10 16.09344 0 0
11:52 pm 23:52 Mostly Cloudy 40 4.4 17 -8.3 40 40 WNW 3 6 30.06 1018 10 16.09344 0 0

Powered by AerisWeather